| time (UTC) | temp F | wind direction | speed MPH | gust MPH | rain 1hr in | rain 24hr in | rain mn in | humidity % | barometer mb |
| 20260504070311 | 74 | 252 | 0.0 | 1.0 | 0.00 | 0.00 | 0.00 | 34 | 1012.0 |
| 20260504050307 | 77 | 171 | 0.0 | 2.0 | 0.00 | 0.00 | 0.00 | 26 | 1011.7 |
| 20260504045807 | 78 | 212 | 2.0 | 3.0 | 0.00 | 0.00 | 0.00 | 25 | 1011.7 |
| 20260504045307 | 78 | 204 | 2.0 | 4.0 | 0.00 | 0.00 | 0.00 | 25 | 1011.7 |
| 20260504044807 | 78 | 219 | 0.0 | 5.0 | 0.00 | 0.00 | 0.00 | 25 | 1011.5 |
| 20260504044306 | 79 | 231 | 0.0 | 7.0 | 0.00 | 0.00 | 0.00 | 25 | 1011.6 |
| 20260504043806 | 79 | 274 | 1.0 | 7.0 | 0.00 | 0.00 | 0.00 | 24 | 1011.5 |
| 20260504043306 | 79 | 279 | 1.0 | 5.0 | 0.00 | 0.00 | 0.00 | 24 | 1011.2 |
| 20260504042806 | 79 | 247 | 4.0 | 6.0 | 0.00 | 0.00 | 0.00 | 24 | 1011.2 |
| 20260504042306 | 80 | 236 | 3.0 | 6.0 | 0.00 | 0.00 | 0.00 | 24 | 1011.4 |
| 20260504041806 | 80 | 229 | 2.0 | 6.0 | 0.00 | 0.00 | 0.00 | 23 | 1011.1 |
| 20260504041305 | 80 | 319 | 3.0 | 6.0 | 0.00 | 0.00 | 0.00 | 23 | 1011.1 |
| 20260504040806 | 81 | 234 | 3.0 | 8.0 | 0.00 | 0.00 | 0.00 | 22 | 1011.1 |
| 20260504040305 | 81 | 182 | 4.0 | 8.0 | 0.00 | 0.00 | 0.00 | 22 | 1010.9 |
| 20260504035805 | 81 | 148 | 3.0 | 11.0 | 0.00 | 0.00 | 0.00 | 21 | 1010.7 |
| 20260504035305 | 81 | 161 | 4.0 | 11.0 | 0.00 | 0.00 | 0.00 | 21 | 1010.4 |
| 20260504034305 | 82 | 178 | 3.0 | 13.0 | 0.00 | 0.00 | 0.00 | 20 | 1010.2 |
| 20260504033304 | 82 | 204 | 3.0 | 9.0 | 0.00 | 0.00 | 0.00 | 20 | 1010.1 |
| 20260504032804 | 82 | 131 | 6.0 | 8.0 | 0.00 | 0.00 | 0.00 | 20 | 1009.9 |
| 20260504032304 | 82 | 211 | 2.0 | 9.0 | 0.00 | 0.00 | 0.00 | 20 | 1009.7 |
| 20260504031804 | 82 | 186 | 2.0 | 11.0 | 0.00 | 0.00 | 0.00 | 20 | 1009.6 |
| 20260504031304 | 83 | 221 | 6.0 | 11.0 | 0.00 | 0.00 | 0.00 | 20 | 1009.5 |
| 20260504030804 | 83 | 210 | 3.0 | 11.0 | 0.00 | 0.00 | 0.00 | 20 | 1009.5 |
| 20260504030303 | 83 | 206 | 6.0 | 10.0 | 0.00 | 0.00 | 0.00 | 20 | 1009.2 |
| 20260504025304 | 84 | 269 | 2.0 | 11.0 | 0.00 | 0.00 | 0.00 | 19 | 1008.9 |
| 20260504023803 | 84 | 212 | 2.0 | 13.0 | 0.00 | 0.00 | 0.00 | 19 | 1008.6 |
| 20260504022304 | 85 | 204 | 2.0 | 11.0 | 0.00 | 0.00 | 0.00 | 18 | 1008.3 |
| 20260504021802 | 86 | 214 | 2.0 | 12.0 | 0.00 | 0.00 | 0.00 | 17 | 1008.5 |
| 20260504021302 | 86 | 222 | 5.0 | 12.0 | 0.00 | 0.00 | 0.00 | 17 | 1008.5 |
| 20260504020302 | 87 | 223 | 6.0 | 15.0 | 0.00 | 0.00 | 0.00 | 16 | 1007.9 |
| 20260504015802 | 87 | 253 | 11.0 | 14.0 | 0.00 | 0.00 | 0.00 | 16 | 1007.9 |
| 20260504015304 | 88 | 228 | 1.0 | 11.0 | 0.00 | 0.00 | 0.00 | 16 | 1007.9 |
| 20260504014801 | 88 | 224 | 3.0 | 12.0 | 0.00 | 0.00 | 0.00 | 15 | 1007.7 |
| 20260504014301 | 89 | 262 | 8.0 | 13.0 | 0.00 | 0.00 | 0.00 | 14 | 1007.6 |
| 20260504013801 | 89 | 210 | 12.0 | 13.0 | 0.00 | 0.00 | 0.00 | 14 | 1007.6 |
| 20260504012801 | 90 | 205 | 3.0 | 14.0 | 0.00 | 0.00 | 0.00 | 13 | 1007.7 |
| 20260504012301 | 91 | 176 | 7.0 | 13.0 | 0.00 | 0.00 | 0.00 | 13 | 1007.6 |
| 20260504011800 | 91 | 217 | 5.0 | 13.0 | 0.00 | 0.00 | 0.00 | 14 | 1007.7 |
| 20260504011301 | 92 | 199 | 6.0 | 9.0 | 0.00 | 0.00 | 0.00 | 14 | 1007.8 |
| 20260504010300 | 93 | 174 | 4.0 | 11.0 | 0.00 | 0.00 | 0.00 | 13 | 1007.7 |
| 20260504005800 | 93 | 245 | 4.0 | 13.0 | 0.00 | 0.00 | 0.00 | 13 | 1007.8 |
| 20260504005300 | 94 | 233 | 5.0 | 13.0 | 0.00 | 0.00 | 0.00 | 13 | 1007.9 |
| 20260504004259 | 94 | 174 | 7.0 | 12.0 | 0.00 | 0.00 | 0.00 | 14 | 1008.0 |
| 20260504003759 | 94 | 227 | 1.0 | 10.0 | 0.00 | 0.00 | 0.00 | 15 | 1007.9 |
| 20260504003259 | 94 | 132 | 6.0 | 10.0 | 0.00 | 0.00 | 0.00 | 15 | 1007.9 |
| 20260504002759 | 94 | 158 | 6.0 | 9.0 | 0.00 | 0.00 | 0.00 | 15 | 1007.7 |
| 20260504002259 | 94 | 167 | 6.0 | 9.0 | 0.00 | 0.00 | 0.00 | 15 | 1007.8 |
| 20260504001759 | 94 | 225 | 2.0 | 8.0 | 0.00 | 0.00 | 0.00 | 15 | 1007.9 |
| 20260504001259 | 93 | 158 | 8.0 | 14.0 | 0.00 | 0.00 | 0.00 | 16 | 1007.8 |
| 20260504000758 | 93 | 193 | 5.0 | 14.0 | 0.00 | 0.00 | 0.00 | 16 | 1007.8 |
| 20260504000258 | 94 | 173 | 4.0 | 9.0 | 0.00 | 0.00 | 0.00 | 16 | 1008.0 |
| 20260503234758 | 94 | 178 | 3.0 | 12.0 | 0.00 | 0.00 | 0.00 | 16 | 1008.2 |
| 20260503233757 | 94 | 180 | 8.0 | 15.0 | 0.00 | 0.00 | 0.00 | 16 | 1008.2 |
| 20260503232257 | 95 | 137 | 7.0 | 7.0 | 0.00 | 0.00 | 0.00 | 15 | 1008.3 |
| 20260503231757 | 94 | 238 | 2.0 | 11.0 | 0.00 | 0.00 | 0.00 | 15 | 1008.4 |
| 20260503231257 | 94 | 178 | 3.0 | 15.0 | 0.00 | 0.00 | 0.00 | 15 | 1008.4 |
| 20260503230757 | 94 | 101 | 6.0 | 15.0 | 0.00 | 0.00 | 0.00 | 15 | 1008.6 |
| 20260503230257 | 95 | 240 | 2.0 | 13.0 | 0.00 | 0.00 | 0.00 | 15 | 1008.5 |
| 20260503225756 | 95 | 195 | 7.0 | 13.0 | 0.00 | 0.00 | 0.00 | 15 | 1008.7 |
| 20260503225256 | 95 | 153 | 2.0 | 13.0 | 0.00 | 0.00 | 0.00 | 15 | 1008.7 |
| 20260503224756 | 94 | 240 | 8.0 | 13.0 | 0.00 | 0.00 | 0.00 | 15 | 1008.7 |
| 20260503224256 | 94 | 223 | 1.0 | 9.0 | 0.00 | 0.00 | 0.00 | 15 | 1009.0 |
| 20260503223756 | 95 | 214 | 3.0 | 12.0 | 0.00 | 0.00 | 0.00 | 15 | 1009.1 |
| 20260503223256 | 95 | 184 | 6.0 | 12.0 | 0.00 | 0.00 | 0.00 | 15 | 1009.1 |
| 20260503222756 | 95 | 177 | 12.0 | 12.0 | 0.00 | 0.00 | 0.00 | 15 | 1009.1 |
| 20260503222256 | 94 | 198 | 6.0 | 11.0 | 0.00 | 0.00 | 0.00 | 16 | 1009.3 |
| 20260503221255 | 94 | 245 | 3.0 | 12.0 | 0.00 | 0.00 | 0.00 | 16 | 1009.4 |
| 20260503220255 | 94 | 153 | 4.0 | 13.0 | 0.00 | 0.00 | 0.00 | 16 | 1009.7 |
| 20260503211754 | 95 | 165 | 9.0 | 15.0 | 0.00 | 0.00 | 0.00 | 15 | 1010.5 |
| 20260503211253 | 94 | 193 | 5.0 | 15.0 | 0.00 | 0.00 | 0.00 | 15 | 1010.4 |
| 20260503210753 | 95 | 177 | 6.0 | 13.0 | 0.00 | 0.00 | 0.00 | 15 | 1010.5 |
| 20260503210253 | 94 | 195 | 4.0 | 13.0 | 0.00 | 0.00 | 0.00 | 16 | 1010.6 |
| 20260503205753 | 95 | 236 | 4.0 | 13.0 | 0.00 | 0.00 | 0.00 | 16 | 1010.8 |
| 20260503205253 | 94 | 190 | 3.0 | 12.0 | 0.00 | 0.00 | 0.00 | 16 | 1010.6 |
| 20260503204252 | 95 | 198 | 8.0 | 10.0 | 0.00 | 0.00 | 0.00 | 16 | 1010.8 |
| 20260503203753 | 94 | 158 | 7.0 | 12.0 | 0.00 | 0.00 | 0.00 | 16 | 1010.6 |
| 20260503203252 | 94 | 91 | 7.0 | 12.0 | 0.00 | 0.00 | 0.00 | 19 | 1010.7 |
| 20260503202752 | 94 | 153 | 5.0 | 11.0 | 0.00 | 0.00 | 0.00 | 19 | 1010.7 |
| 20260503202252 | 94 | 309 | 1.0 | 10.0 | 0.00 | 0.00 | 0.00 | 19 | 1010.9 |
| 20260503201752 | 94 | 203 | 3.0 | 10.0 | 0.00 | 0.00 | 0.00 | 19 | 1011.1 |
| 20260503201252 | 93 | 103 | 1.0 | 10.0 | 0.00 | 0.00 | 0.00 | 20 | 1011.1 |
| 20260503200251 | 93 | 146 | 5.0 | 13.0 | 0.00 | 0.00 | 0.00 | 20 | 1011.3 |
| 20260503195751 | 93 | 205 | 6.0 | 13.0 | 0.00 | 0.00 | 0.00 | 20 | 1011.3 |
| 20260503195251 | 93 | 137 | 4.0 | 10.0 | 0.00 | 0.00 | 0.00 | 20 | 1011.3 |
| 20260503194751 | 93 | 221 | 6.0 | 13.0 | 0.00 | 0.00 | 0.00 | 20 | 1011.5 |
| 20260503194251 | 93 | 235 | 5.0 | 13.0 | 0.00 | 0.00 | 0.00 | 20 | 1011.7 |
| 20260503193751 | 93 | 207 | 2.0 | 11.0 | 0.00 | 0.00 | 0.00 | 20 | 1011.7 |
| 20260503192750 | 92 | 126 | 4.0 | 12.0 | 0.00 | 0.00 | 0.00 | 21 | 1012.0 |
| 20260503191750 | 92 | 104 | 3.0 | 9.0 | 0.00 | 0.00 | 0.00 | 20 | 1012.0 |
| 20260503191250 | 91 | 166 | 5.0 | 11.0 | 0.00 | 0.00 | 0.00 | 21 | 1012.0 |
| 20260503190750 | 91 | 115 | 4.0 | 11.0 | 0.00 | 0.00 | 0.00 | 21 | 1012.0 |
| 20260503190250 | 91 | 212 | 6.0 | 8.0 | 0.00 | 0.00 | 0.00 | 21 | 1012.1 |
| 20260503185749 | 90 | 160 | 1.0 | 8.0 | 0.00 | 0.00 | 0.00 | 22 | 1012.3 |
| 20260503185249 | 89 | 124 | 3.0 | 9.0 | 0.00 | 0.00 | 0.00 | 22 | 1012.0 |
| 20260503184249 | 89 | 126 | 3.0 | 12.0 | 0.00 | 0.00 | 0.00 | 21 | 1012.1 |
| 20260503183749 | 89 | 115 | 3.0 | 13.0 | 0.00 | 0.00 | 0.00 | 19 | 1012.1 |
| 20260503183249 | 90 | 120 | 6.0 | 13.0 | 0.00 | 0.00 | 0.00 | 18 | 1012.4 |
| 20260503182748 | 90 | 177 | 3.0 | 10.0 | 0.00 | 0.00 | 0.00 | 19 | 1012.5 |
| 20260503182249 | 90 | 138 | 5.0 | 9.0 | 0.00 | 0.00 | 0.00 | 19 | 1012.5 |
| 20260503181748 | 89 | 185 | 6.0 | 9.0 | 0.00 | 0.00 | 0.00 | 20 | 1012.6 |
| 20260503181248 | 88 | 160 | 5.0 | 9.0 | 0.00 | 0.00 | 0.00 | 22 | 1012.5 |
| 20260503180748 | 87 | 115 | 3.0 | 13.0 | 0.00 | 0.00 | 0.00 | 23 | 1012.5 |
| 20260503180248 | 87 | 156 | 4.0 | 13.0 | 0.00 | 0.00 | 0.00 | 22 | 1012.7 |
| 20260503175317 | 87 | 102 | 4.0 | 10.0 | 0.00 | 0.00 | 0.00 | 23 | 1012.7 |
| 20260503174817 | 87 | 146 | 7.0 | 11.0 | 0.00 | 0.00 | 0.00 | 23 | 1012.7 |
| 20260503174248 | 87 | 85 | 5.0 | 11.0 | 0.00 | 0.00 | 0.00 | 23 | 1012.7 |
| 20260503171816 | 86 | 202 | 3.0 | 13.0 | 0.00 | 0.00 | 0.00 | 23 | 1012.9 |
| 20260503171316 | 86 | 104 | 2.0 | 15.0 | 0.00 | 0.00 | 0.00 | 23 | 1012.9 |
| 20260503170817 | 86 | 133 | 5.0 | 15.0 | 0.00 | 0.00 | 0.00 | 23 | 1013.0 |
| 20260503170246 | 86 | 131 | 6.0 | 13.0 | 0.00 | 0.00 | 0.00 | 25 | 1013.0 |
| 20260503150313 | 80 | 129 | 6.0 | 14.0 | 0.00 | 0.00 | 0.00 | 29 | 1012.4 |
| 20260503140311 | 79 | 108 | 4.0 | 12.0 | 0.00 | 0.00 | 0.00 | 30 | 1012.5 |
| 20260503131309 | 78 | 116 | 8.0 | 12.0 | 0.00 | 0.00 | 0.00 | 30 | 1012.4 |
| 20260503130810 | 78 | 101 | 5.0 | 12.0 | 0.00 | 0.00 | 0.00 | 30 | 1012.2 |
| 20260503130309 | 78 | 96 | 5.0 | 12.0 | 0.00 | 0.00 | 0.00 | 30 | 1012.0 |
| 20260503110806 | 78 | 130 | 4.0 | 11.0 | 0.00 | 0.00 | 0.00 | 30 | 1012.1 |
| 20260503110305 | 78 | 112 | 7.0 | 9.0 | 0.00 | 0.00 | 0.00 | 30 | 1012.1 |
| 20260503090303 | 80 | 108 | 4.0 | 16.0 | 0.00 | 0.00 | 0.00 | 27 | 1012.0 |
| 20260503081301 | 80 | 109 | 7.0 | 13.0 | 0.00 | 0.00 | 0.00 | 25 | 1012.5 |
| 20260503080800 | 80 | 134 | 4.0 | 13.0 | 0.00 | 0.00 | 0.00 | 25 | 1012.6 |
| 20260503080300 | 80 | 119 | 6.0 | 12.0 | 0.00 | 0.00 | 0.00 | 25 | 1012.7 |
| 20260503072800 | 79 | 120 | 6.0 | 8.0 | 0.00 | 0.00 | 0.00 | 24 | 1012.7 |